EW5954 Weather Reports


Display with metric or nautical units.
time (UTC)temp
F
wind
direction
speed
MPH
gust
MPH
rain 1hr
in
rain 24hr
in
rain mn
in
humidity
%
barometer
mb
20260904202225 77 355 0.0 2.0 0.00 0.00 0.00 64
20260904201720 76 5 2.0 5.0 0.00 0.00 0.00 65
20260904201220 76 4 0.0 0.0 0.00 0.00 0.00 67
20260904200714 76 10 1.0 3.0 0.00 0.00 0.00 66
20260904200209 76 20 0.0 3.0 0.00 0.00 0.00 66
20260904195708 77 36 3.0 5.0 0.00 0.00 0.00 64
20260904195207 76 13 0.0 3.0 0.00 0.00 0.00 65
20260904194702 76 34 2.0 3.0 0.00 0.00 0.00 65
20260904194201 76 51 2.0 2.0 0.00 0.00 0.00 65
20260904193657 76 22 2.0 6.0 0.00 0.00 0.00 65
20260904193153 75 359 0.0 5.0 0.00 0.00 0.00 66
20260904192653 75 14 3.0 3.0 0.00 0.00 0.00 65
20260904192149 76 22 1.0 3.0 0.00 0.00 0.00 64
20260904191645 75 357 1.0 2.0 0.00 0.00 0.00 64
20260904191141 75 358 4.0 5.0 0.00 0.00 0.00 64
20260904190637 75 34 1.0 5.0 0.00 0.00 0.00 65
20260904190133 75 12 0.0 6.0 0.00 0.00 0.00 63
20260904185629 75 11 1.0 3.0 0.00 0.00 0.00 63
20260904185124 75 10 2.0 6.0 0.00 0.00 0.00 63
20260904184622 75 2 2.0 3.0 0.00 0.00 0.00 64
20260904184119 74 15 1.0 2.0 0.00 0.00 0.00 66
20260904183614 74 353 1.0 6.0 0.00 0.00 0.00 66
20260904183108 74 1 1.0 5.0 0.00 0.00 0.00 69
20260904182604 74 351 1.0 6.0 0.00 0.00 0.00 69
20260904182058 74 59 1.0 5.0 0.00 0.00 0.00 72
20260904181555 74 19 1.0 7.0 0.00 0.00 0.00 71
20260904181054 74 7 1.0 3.0 0.00 0.00 0.00 72
20260904180549 76 139 4.0 7.0 0.00 0.00 0.00 71
20260904180044 76 25 0.0 3.0 0.00 0.00 0.00 65
20260904175538 76 39 3.0 7.0 0.00 0.00 0.00 63
20260904175036 76 345 1.0 5.0 0.00 0.00 0.00 63
20260904174532 76 343 0.0 2.0 0.00 0.00 0.00 64
20260904174029 77 324 3.0 5.0 0.00 0.00 0.00 62
20260904173528 76 6 0.0 2.0 0.00 0.00 0.00 63
20260904173024 77 10 0.0 2.0 0.00 0.00 0.00 63
20260904172520 77 30 1.0 2.0 0.00 0.00 0.00 62
20260904172019 77 1 0.0 1.0 0.00 0.00 0.00 62
20260904171514 77 30 0.0 3.0 0.00 0.00 0.00 63
20260904171010 78 344 0.0 3.0 0.00 0.00 0.00 64
20260904170505 79 273 3.0 5.0 0.00 0.00 0.00 59
20260904170001 79 352 0.0 2.0 0.00 0.00 0.00 64
20260904165500 79 318 0.0 1.0 0.00 0.00 0.00 61
20260904164959 80 340 0.0 1.0 0.00 0.00 0.00 59
20260904164454 80 326 2.0 2.0 0.00 0.00 0.00 58
20260904163950 81 13 1.0 1.0 0.00 0.00 0.00 58
20260904163449 80 318 1.0 2.0 0.00 0.00 0.00 60
20260904162944 80 324 0.0 1.0 0.00 0.00 0.00 60
20260904162439 79 337 0.0 1.0 0.00 0.00 0.00 60
20260904161934 79 326 1.0 1.0 0.00 0.00 0.00 59
20260904161430 79 9 1.0 1.0 0.00 0.00 0.00 61
20260904160925 78 332 0.0 2.0 0.00 0.00 0.00 63
20260904160420 77 345 0.0 1.0 0.00 0.00 0.00 64
20260904155915 78 27 2.0 3.0 0.00 0.00 0.00 60
20260904155409 77 287 1.0 2.0 0.00 0.00 0.00 62
20260904154908 78 355 0.0 5.0 0.00 0.00 0.00 59
20260904154403 77 11 0.0 2.0 0.00 0.00 0.00 61
20260904153859 76 349 0.0 0.0 0.00 0.00 0.00 64
20260904153354 77 354 0.0 1.0 0.00 0.00 0.00 63
20260904152850 77 352 0.0 2.0 0.00 0.00 0.00 63
20260904152350 77 347 0.0 2.0 0.00 0.00 0.00 60
20260904151849 77 352 0.0 1.0 0.00 0.00 0.00 65
20260904151344 76 293 1.0 1.0 0.00 0.00 0.00 67
20260904150840 76 317 0.0 1.0 0.00 0.00 0.00 68
20260904150335 75 354 0.0 2.0 0.00 0.00 0.00 69
20260904145832 75 317 0.0 1.0 0.00 0.00 0.00 71
20260904145329 74 354 0.0 2.0 0.00 0.00 0.00 70
20260904144824 74 352 0.0 1.0 0.00 0.00 0.00 71
20260904144320 74 339 0.0 2.0 0.00 0.00 0.00 72
20260904143815 73 358 0.0 3.0 0.00 0.00 0.00 72
20260904143312 73 13 1.0 2.0 0.00 0.00 0.00 71
20260904142808 74 29 0.0 1.0 0.00 0.00 0.00 71
20260904142306 75 347 0.0 1.0 0.00 0.00 0.00 70
20260904141758 75 41 0.0 1.0 0.00 0.00 0.00 69
20260904141253 75 296 1.0 2.0 0.00 0.00 0.00 71
20260904140749 74 347 0.0 1.0 0.00 0.00 0.00 72
20260904140244 74 341 0.0 2.0 0.00 0.00 0.00 72
20260904135743 73 160 0.0 2.0 0.00 0.00 0.00 71
20260904135238 73 349 0.0 1.0 0.00 0.00 0.00 72
20260904134735 72 334 0.0 1.0 0.00 0.00 0.00 73
20260904134234 72 345 0.0 3.0 0.00 0.00 0.00 73
20260904133728 73 91 0.0 0.0 0.00 0.00 0.00 72
20260904133225 72 359 0.0 1.0 0.00 0.00 0.00 73
20260904132724 71 351 0.0 2.0 0.00 0.00 0.00 74
20260904132220 71 354 0.0 2.0 0.00 0.00 0.00 75
20260904131718 70 11 0.0 2.0 0.00 0.00 0.00 74
20260904131214 70 353 0.0 1.0 0.00 0.00 0.00 75
20260904130709 70 351 0.0 0.0 0.00 0.00 0.00 74
20260904130208 70 351 2.0 3.0 0.00 0.00 0.00 74
20260904125704 70 356 0.0 0.0 0.00 0.00 0.00 74
20260904125200 69 353 0.0 0.0 0.00 0.00 0.00 75
20260904124655 69 358 0.0 0.0 0.00 0.00 0.00 75
20260904124151 69 353 0.0 1.0 0.00 0.00 0.00 75
20260904123650 69 352 0.0 0.0 0.00 0.00 0.00 76
20260904123146 68 353 0.0 0.0 0.00 0.00 0.00 77
20260904122640 68 347 0.0 0.0 0.00 0.00 0.00 77
20260904122136 68 352 0.0 0.0 0.00 0.00 0.00 77
20260904121631 68 354 0.0 0.0 0.00 0.00 0.00 76
20260904121126 68 357 0.0 1.0 0.00 0.00 0.00 77
20260904120623 66 340 0.0 0.0 0.00 0.00 0.00 78
20260904120118 66 5 0.0 0.0 0.00 0.00 0.00 80
20260904115613 66 359 0.0 0.0 0.00 0.00 0.00 80
20260904115108 65 349 0.0 0.0 0.00 0.00 0.00 81
20260904114607 64 357 0.0 0.0 0.00 0.00 0.00 82
20260904114102 64 9 1.0 2.0 0.00 0.00 0.00 83
20260904113557 63 358 0.0 1.0 0.00 0.00 0.00 84
20260904113056 63 357 0.0 0.0 0.00 0.00 0.00 85
20260904112552 62 357 0.0 0.0 0.00 0.00 0.00 86
20260904112048 62 0 0.0 0.0 0.00 0.00 0.00 86
20260904111543 62 357 0.0 0.0 0.00 0.00 0.00 86
20260904111038 62 358 0.0 0.0 0.00 0.00 0.00 86
20260904110532 62 2 0.0 0.0 0.00 0.00 0.00 86
20260904110028 62 0 0.0 0.0 0.00 0.00 0.00 86
20260904105522 62 0 0.0 0.0 0.00 0.00 0.00 86
20260904105017 61 2 0.0 0.0 0.00 0.00 0.00 86
20260904104513 61 354 0.0 1.0 0.00 0.00 0.00 86
20260904104009 61 359 0.0 0.0 0.00 0.00 0.00 87
20260904103504 61 359 0.0 0.0 0.00 0.00 0.00 87
20260904103000 62 0 0.0 0.0 0.00 0.00 0.00 86
20260904102455 62 4 0.0 0.0 0.00 0.00 0.00 86
20260904101950 62 359 0.0 0.0 0.00 0.00 0.00 86
20260904101447 62 358 0.0 0.0 0.00 0.00 0.00 86
20260904100943 62 0 0.0 0.0 0.00 0.00 0.00 86
20260904100438 62 358 0.0 0.0 0.00 0.00 0.00 85
20260904095938 63 359 0.0 2.0 0.00 0.00 0.00 86
20260904095433 63 2 0.0 0.0 0.00 0.00 0.00 86
20260904094927 63 11 1.0 2.0 0.00 0.00 0.00 86
20260904094423 62 14 1.0 2.0 0.00 0.00 0.00 87
20260904093919 63 0 0.0 0.0 0.00 0.00 0.00 87
20260904093414 63 3 0.0 0.0 0.00 0.00 0.00 86
20260904092909 63 13 0.0 0.0 0.00 0.00 0.00 86
20260904092406 64 9 0.0 0.0 0.00 0.00 0.00 86
20260904091901 64 1 0.0 0.0 0.00 0.00 0.00 86
20260904091356 64 0 0.0 0.0 0.00 0.00 0.00 86
20260904090851 64 358 0.0 0.0 0.00 0.00 0.00 86
20260904090347 64 1 0.0 0.0 0.00 0.00 0.00 85
20260904085842 65 3 0.0 1.0 0.00 0.00 0.00 85
20260904085338 65 4 1.0 2.0 0.00 0.00 0.00 85
20260904084837 65 359 0.0 0.0 0.00 0.00 0.00 84
20260904084333 66 345 0.0 2.0 0.00 0.00 0.00 84
20260904083829 66 356 0.0 0.0 0.00 0.00 0.00 84
20260904083326 66 2 0.0 0.0 0.00 0.00 0.00 84
20260904082821 66 359 0.0 0.0 0.00 0.00 0.00 83
20260904082315 66 357 0.0 0.0 0.00 0.00 0.00 83
20260904081811 66 1 0.0 0.0 0.00 0.00 0.00 83
20260904081306 67 359 0.0 0.0 0.00 0.00 0.00 83
20260904080802 67 357 0.0 1.0 0.00 0.00 0.00 82
20260904080257 67 355 0.0 0.0 0.00 0.00 0.00 82
20260904075748 67 3 0.0 1.0 0.00 0.00 0.00 81
20260904075243 67 346 1.0 1.0 0.00 0.00 0.00 81
20260904074742 67 3 0.0 1.0 0.00 0.00 0.00 82
20260904074236 67 358 0.0 1.0 0.00 0.00 0.00 82
20260904073732 67 23 0.0 0.0 0.00 0.00 0.00 83
20260904073228 67 1 0.0 1.0 0.00 0.00 0.00 83
20260904072724 67 358 0.0 1.0 0.00 0.00 0.00 83
20260904072223 67 0 0.0 2.0 0.00 0.00 0.00 84
20260904071720 67 14 0.0 0.0 0.00 0.00 0.00 85
20260904071214 68 2 0.0 0.0 0.00 0.00 0.00 85
20260904070714 68 15 0.0 1.0 0.00 0.00 0.00 85
20260904070213 68 356 0.0 0.0 0.00 0.00 0.00 85
20260904065708 68 3 0.0 0.0 0.00 0.00 0.00 86
20260904065205 67 358 0.0 1.0 0.00 0.00 0.00 87
20260904064659 67 4 0.0 0.0 0.00 0.00 0.00 88
20260904064154 67 1 0.0 0.0 0.00 0.00 0.00 89
20260904063650 67 358 0.0 0.0 0.00 0.00 0.00 89
20260904063146 67 358 0.0 0.0 0.00 0.00 0.00 89
20260904062642 68 358 0.0 0.0 0.00 0.00 0.00 89
20260904062137 68 1 0.0 0.0 0.00 0.00 0.00 90
20260904061633 68 0 0.0 0.0 0.00 0.00 0.00 90
20260904061129 68 358 0.0 0.0 0.00 0.00 0.00 90
20260904060626 68 359 0.0 0.0 0.00 0.00 0.00 90
20260904060121 68 1 0.0 0.0 0.00 0.00 0.00 90
20260904055621 68 1 0.0 0.0 0.00 0.00 0.00 89
20260904055122 68 356 0.0 0.0 0.00 0.00 0.00 89
20260904054618 68 356 0.0 0.0 0.00 0.00 0.00 88
20260904054114 68 3 0.0 0.0 0.00 0.00 0.00 88
20260904053608 68 9 0.0 0.0 0.00 0.00 0.00 88
20260904053103 68 3 0.0 0.0 0.00 0.00 0.00 88
20260904052600 68 358 0.0 0.0 0.00 0.00 0.00 88
20260904052055 68 358 0.0 0.0 0.00 0.00 0.00 88
20260904051552 68 358 0.0 0.0 0.00 0.00 0.00 88
20260904051051 68 358 0.0 0.0 0.00 0.00 0.00 87
20260904050547 68 358 0.0 0.0 0.00 0.00 0.00 87
20260904050043 68 358 0.0 0.0 0.00 0.00 0.00 86
20260904045538 68 358 0.0 0.0 0.00 0.00 0.00 86
20260904045032 68 358 0.0 0.0 0.00 0.00 0.00 86
20260904044528 68 356 0.0 0.0 0.00 0.00 0.00 86
20260904044024 68 354 0.0 0.0 0.00 0.00 0.00 87
20260904043520 68 358 0.0 0.0 0.00 0.00 0.00 86
20260904043016 68 1 0.0 0.0 0.00 0.00 0.00 86
20260904042512 68 1 0.0 0.0 0.00 0.00 0.00 85
20260904042007 68 5 0.0 0.0 0.00 0.00 0.00 85
20260904041503 68 5 0.0 1.0 0.00 0.00 0.00 84
20260904040959 68 2 0.0 1.0 0.00 0.00 0.00 84
20260904040453 68 358 0.0 0.0 0.00 0.00 0.00 84
20260904035949 68 2 0.0 0.0 0.00 0.01 0.01 85
20260904035445 68 2 0.0 0.0 0.00 0.01 0.01 85
20260904034944 68 2 0.0 0.0 0.00 0.01 0.01 85
20260904034439 68 354 0.0 0.0 0.00 0.01 0.01 85
20260904033935 68 359 0.0 0.0 0.00 0.01 0.01 85
20260904033431 68 353 0.0 0.0 0.00 0.01 0.01 85
20260904032927 68 359 0.0 0.0 0.00 0.01 0.01 86
20260904032423 67 358 0.0 0.0 0.00 0.01 0.01 86
20260904031921 67 3 0.0 0.0 0.00 0.01 0.01 86
20260904031417 68 359 0.0 0.0 0.00 0.01 0.01 85
20260904030914 68 1 0.0 0.0 0.00 0.01 0.01 84
20260904030413 68 356 0.0 0.0 0.00 0.01 0.01 83
20260904025909 68 6 0.0 0.0 0.00 0.01 0.01 83
20260904025405 68 16 0.0 1.0 0.00 0.01 0.01 82
20260904024859 68 8 0.0 0.0 0.00 0.01 0.01 83
20260904024354 68 1 0.0 0.0 0.00 0.01 0.01 83
20260904023850 68 2 0.0 0.0 0.00 0.01 0.01 83
20260904023346 68 6 0.0 1.0 0.00 0.01 0.01 82
20260904022845 68 358 0.0 0.0 0.00 0.01 0.01 83
20260904022342 69 351 0.0 0.0 0.00 0.01 0.01 83
20260904021839 69 357 0.0 0.0 0.00 0.01 0.01 83
20260904021339 69 0 0.0 0.0 0.00 0.01 0.01 83
20260904020834 69 1 0.0 0.0 0.00 0.01 0.01 83
20260904020329 69 7 0.0 0.0 0.00 0.01 0.01 83
20260904015827 69 356 0.0 0.0 0.00 0.01 0.01 83
20260904015323 69 356 0.0 1.0 0.00 0.01 0.01 83
20260904014822 70 343 0.0 2.0 0.00 0.01 0.01 82
20260904014317 70 4 0.0 0.0 0.00 0.01 0.01 82
20260904013813 70 0 0.0 1.0 0.00 0.01 0.01 82
20260904013309 70 359 1.0 1.0 0.00 0.01 0.01 82
20260904012804 70 11 0.0 1.0 0.00 0.01 0.01 82
20260904012259 71 15 0.0 0.0 0.00 0.01 0.01 82
20260904011758 71 6 0.0 0.0 0.00 0.01 0.01 81
20260904011254 71 342 0.0 1.0 0.00 0.01 0.01 81
20260904010754 71 356 1.0 1.0 0.00 0.01 0.01 81
20260904010250 71 2 0.0 1.0 0.00 0.01 0.01 81
20260904005745 71 2 0.0 1.0 0.00 0.01 0.01 81
20260904005241 71 359 0.0 2.0 0.00 0.01 0.01 80
20260904004736 72 358 0.0 1.0 0.00 0.01 0.01 80
20260904004232 72 359 0.0 1.0 0.00 0.01 0.01 80
20260904003726 72 1 0.0 2.0 0.00 0.01 0.01 79
20260904003222 72 355 1.0 1.0 0.00 0.01 0.01 80
20260904002718 73 346 0.0 0.0 0.00 0.01 0.01 80
20260904002214 73 357 0.0 0.0 0.00 0.01 0.01 80
20260904001709 73 349 0.0 2.0 0.00 0.01 0.01 80
20260904001207 73 358 1.0 1.0 0.00 0.01 0.01 80
20260904000703 73 4 0.0 2.0 0.00 0.01 0.01 80
20260904000152 73 10 0.0 1.0 0.00 0.01 0.01 79
20260903235651 73 0 0.0 1.0 0.00 0.01 0.01 79
20260903235148 73 355 0.0 1.0 0.00 0.01 0.01 79
20260903234637 73 9 0.0 1.0 0.00 0.01 0.01 79
20260903234133 74 8 0.0 1.0 0.00 0.01 0.01 79
20260903233629 74 289 1.0 2.0 0.00 0.01 0.01 78
20260903233124 74 42 1.0 2.0 0.00 0.01 0.01 78
20260903232619 74 25 1.0 3.0 0.00 0.01 0.01 78
20260903232115 75 354 2.0 3.0 0.00 0.01 0.01 78
20260903231608 75 1 0.0 1.0 0.00 0.01 0.01 78
20260903231109 75 338 0.0 1.0 0.00 0.01 0.01 78
20260903230604 75 7 0.0 3.0 0.00 0.01 0.01 77
20260903225600 76 339 0.0 1.0 0.00 0.01 0.01 77
20260903225057 76 357 1.0 2.0 0.00 0.01 0.01 77
20260903224553 77 358 0.0 2.0 0.00 0.01 0.01 77
20260903224048 77 352 0.0 1.0 0.00 0.01 0.01 77
20260903223543 77 344 0.0 2.0 0.00 0.01 0.01 77
20260903223042 77 351 0.0 3.0 0.00 0.01 0.01 76
20260903222537 78 14 1.0 2.0 0.00 0.01 0.01 75
20260903222036 79 353 0.0 1.0 0.00 0.01 0.01 74
20260903221532 80 357 0.0 1.0 0.00 0.01 0.01 72
20260903221029 80 4 0.0 0.0 0.00 0.01 0.01 72
20260903220528 80 344 1.0 1.0 0.00 0.01 0.01 72
20260903220028 80 352 0.0 2.0 0.00 0.01 0.01 71
20260903215528 80 356 0.0 0.0 0.00 0.01 0.01 71
20260903215027 80 29 0.0 1.0 0.00 0.01 0.01 71
20260903214522 80 6 1.0 3.0 0.00 0.01 0.01 70
20260903214022 80 9 1.0 1.0 0.00 0.01 0.01 70
20260903213517 80 4 0.0 2.0 0.00 0.01 0.01 69
20260903213013 81 354 0.0 1.0 0.00 0.01 0.01 70
20260903212509 81 358 0.0 2.0 0.00 0.01 0.01 69
20260903212003 81 11 0.0 1.0 0.00 0.01 0.01 68
20260903211458 81 356 3.0 5.0 0.00 0.01 0.01 68
20260903210955 81 354 0.0 5.0 0.00 0.01 0.01 67
20260903210455 82 13 1.0 2.0 0.00 0.01 0.01 67
20260903205950 82 43 1.0 6.0 0.00 0.01 0.01 66
20260903205444 82 20 3.0 5.0 0.00 0.01 0.01 65
20260903204938 82 358 0.0 3.0 0.00 0.01 0.01 65
20260903204435 82 8 0.0 6.0 0.00 0.01 0.01 64
20260903203930 82 8 0.0 1.0 0.00 0.01 0.01 65
20260903203426 83 336 0.0 3.0 0.00 0.01 0.01 66
20260903202925 83 2 1.0 2.0 0.00 0.01 0.01 65